Regional Weather Roundup
Issued by NWS Pendleton, OR

Home | Current Version | Previous Version | Text Only | Print | Product List | Glossary On
Versions: 1 2 3 4 5 6 7 8 9 10 11 12 13 14 15 16 17 18 19 20 21 22 23 24 25 26 27 28 29 30 31 32 33 34 35 36 37 38 39 40 41 42 43 44 45 46 47 48 49 50
269
ASUS46 KPDT 260925
RWRPDT
PENDLETON REGIONAL WEATHER ROUNDUP
NATIONAL WEATHER SERVICE PENDLETON OREGON
200 AM PDT FRI MAY 26 2017

NOTE: FAIR INDICATES FEW OR NO CLOUDS BELOW 12,000 FEET WITH NO
SIGNIFICANT WEATHER AND/OR OBSTRUCTIONS TO VISIBILITY.

# INDICATES UNOFFICIAL STATION AND DATA

WAZ520-261010-
EAST SLOPES OF WASHINGTON CASCADES

CITY            SKY/WX      TMP DP  RH  WIND    PRES   REMARKS
#BULLFROG       N/A         46  44  93  CALM    N/A
#CLE ELUM HS    N/A         46  42  86  CALM    29.85R
#CLE ELUM LAKE  N/A         50  42  74  CALM    29.94R
#EASTON DOT     N/A         44  42  93  CALM    N/A
#ELK HTS DOT    N/A         48  48  100 W2      N/A
#GLENWOOD       N/A         39  37  92  CALM    29.90R
#NELSON 3SW     N/A         45  41  86  CALM    30.07R
#NILE           N/A         43  41  93  CALM    29.18R
#TEANAWAY 4NE   N/A         46  44  93  CALM    N/A
#TROUT LAKE 1NE N/A         44  42  93  CALM    29.90R
#TROUT LAKE 1E  N/A         38  36  92  CALM    29.94R
$$

WAZ521-261010-
SIMCOE HIGHLANDS

CITY            SKY/WX      TMP DP  RH  WIND    PRES   REMARKS
#BICKLETON HS   N/A         47  42  83  N6      29.88R
#CENTERVILLE 1SWN/A         41  37  86  CALM    29.85R
#GOLDENDALE 4W  N/A         42  28  57  CALM    29.95R
#GOODNOE HILLS  N/A         55  42  61  W3      N/A
#LYLE 6NE       N/A         52  44  74  N1      29.84R
#PITT 4SE       N/A         50  42  74  CALM    29.91R
$$

WAZ026-261010-
KITTITAS VALLEY

CITY            SKY/WX      TMP DP  RH  WIND    PRES   REMARKS
ELLENSBURG AP   CLEAR       47  41  79  CALM    29.90R
YTC-OPS AREA    CLEAR       53  38  57  N8      29.93R
#ELLENSBURG CWU N/A         48  43  83  CALM    29.81R
#ELLENSBURG 3NE N/A         44  40  86  CALM    27.99R
#KITTITAS 4N    N/A         48  39  71  CALM    29.92R
#KITTITAS 3S    N/A         40  38  92  CALM    29.87R
#MANASTASH RDG  N/A         52  52  100 CALM    N/A
#ROCKY CYN DOT  N/A         48  45  89  W5      N/A
#RYEGRASS DOT   N/A         51  41  68  W5      N/A
#THORP 6N       N/A         48  43  83  N1      29.88S
$$

WAZ027-261010-
YAKIMA VALLEY

CITY            SKY/WX      TMP DP  RH  WIND    PRES   REMARKS
SUNNYSIDE AP    CLEAR       46  42  86  CALM    29.89R
YAKIMA AIRPORT  CLEAR       49  43  80  W7      29.90R
YAKIMA-VAGABOND CLEAR       47  40  76  CALM    29.88R
#DONALD 2NE     N/A         56  26  31  NW2     28.74R
#GRANDVIEW      N/A         47  42  83  CALM    29.90R
#MABTON         N/A         47  42  83  CALM    29.88R
#MOXEE 2E       N/A         47  N/A N/A NE2     29.96R
#NACHES 2SW     N/A         53  45  74  W5      29.89S
#OUTLOOK DOT    N/A         49  44  83  CALM    29.85R
#PARKER DOT     N/A         56  44  64  S5      29.87S
#TERRACE HTS    N/A         49  42  77  CALM    29.84R
#TOPPENISH      N/A         52  44  74  CALM    29.80R
#I82 S UMTANUM RN/A         47  40  76  NE1     N/A
#UNION GAP DOT  N/A         49  44  83  N1      29.92R
#WEST VALLEY    N/A         49  43  80  CALM    29.86R
#W YAKIMA       N/A         52  44  74  CALM    29.87R
#WHITE SWAN 5E  N/A         47  42  83  CALM    29.89R
#WILEY CITY 3W  N/A         50  39  66  CALM    29.87R
#ZILLAH DOT     N/A         49  45  86  CALM    N/A
$$

WAZ028-261010-
LOWER COLUMBIA BASIN...WASHINGTON

CITY            SKY/WX      TMP DP  RH  WIND    PRES   REMARKS
HANFORD         CLEAR       52  43  71  W6      29.87R
PASCO           CLEAR       46  44  93  N6      29.88R
PROSSER AWOS    N/A         45  41  86  CALM    29.92R
RICHLAND AWOS   CLEAR       48  46  93  CALM    29.88R
#BENTON CITY    N/A         49  44  83  CALM    29.78S
#CONNELL 5N     N/A         43  39  86  CALM    29.87S
#CONNELL 5NW    N/A         44  41  89  CALM    29.82R
#ELTOPIA 6NW    N/A         51  45  80  CALM    28.85R
#KAHLOTUS       N/A         47  41  79  CALM    29.86R
#KENNEWICK 3S   N/A         55  45  69  CALM    29.87R
#PATERSON       N/A         52  45  77  CALM    29.85S
#PROSSER DOT    N/A         49  45  86  CALM    29.89R
#SAGEMOOR 2W    N/A         51  44  77  CALM    29.73R
#TOUCHET 2S     N/A         44  42  93  CALM    29.84R
#WEST PASCO     N/A         52  44  74  CALM    29.85S
$$

WAZ029-261010-
FOOTHILLS OF THE BLUES...WASHINGTON

CITY            SKY/WX      TMP DP  RH  WIND    PRES   REMARKS
WALLA WALLA AP  PTCLDY      51  44  77  E7      29.87R
#CLYDE 6NW      N/A         42  38  86  CALM    29.85S
#DAYTON SCHOOL  N/A         46  36  68  N2      29.90R
#LOWDEN 2SE     N/A         46  44  93  CALM    29.84R
#PLEASANT VIEW 1N/A         53  42  66  CALM    29.88S
#PRESCOTT       N/A         45  42  89  CALM    29.85R
#WHITMAN COLLEGEN/A         52  45  77  CALM    29.90R
#WAITSBURG 6SSE N/A         45  41  86  E2      29.88R
#WALLA WALLA 5E N/A         47  43  86  NE6     N/A
#WHITMAN MISSIONN/A         47  44  89  CALM    29.88R
$$

WAZ030-261010-
BLUE MOUNTAINS...WASHINGTON

CITY            SKY/WX      TMP DP  RH  WIND    PRES   REMARKS
#DIXIE 5SE      N/A         52  40  63  N5      29.81R
$$

ORZ009-041-WAZ024-261010-
COLUMBIA RIVER GORGE

CITY            SKY/WX      TMP DP  RH  WIND    PRES   REMARKS
HOOD RIVER AP   CLEAR       48  45  89  S3      29.91R
THE DALLES AP   CLEAR       52  45  77  E5      29.89R
#ARLINGTON AIRPON/A         53  42  66  CALM    29.89R
#CELILO DOT     N/A         54  42  64  SW2     N/A
#LYLE           N/A         55  46  72  NE5     29.89R
#MARYHILL       N/A         53  41  64  N1      N/A
#MURDOCK        N/A         55  47  74  NW3     29.85R
#RUFUS DOT      N/A         55  45  69  S5      N/A
#SMITHVILLE     N/A         48  41  77  CALM    29.83R

$$

ORZ510-261010-
NORTH CENTRAL OREGON

CITY            SKY/WX      TMP DP  RH  WIND    PRES   REMARKS
#ANTELOPE       N/A         42  37  82  CALM    29.76S
#CHENOWITH 1W   N/A         51  35  54  NW14    N/A
#DUFUR          N/A         41  39  93  CALM    29.85R
#DUFUR 9E       N/A         55  40  57  CALM    29.92R
#GRASS VALLEY 1SN/A         47  39  74  CALM    29.92R
#KENT DOT       N/A         50  35  56  CALM    N/A
#MAUPIN SCHOOL  N/A         52  41  66  CALM    29.94R
#MORO SCHOOL    N/A         43  41  93  CALM    29.99R
#SHANIKO 5WSW   N/A         48  33  56  N12     N/A    WCI 43
#SHANIKO 4NW    N/A         48  37  65  E8      29.91R
#TYGH VALLEY 2NEN/A         47  40  76  CALM    29.88R
#WAPANITIA AIRPON/A         47  41  79  CALM    29.89R
#WASCO DOT      N/A         43  39  86  E1      N/A
#WASCO 5NE      N/A         42  37  82  CALM    29.87R
$$

ORZ511-261010-
CENTRAL OREGON

CITY            SKY/WX      TMP DP  RH  WIND    PRES   REMARKS
BEND AIRPORT    MOCLDY      45  36  70  CALM    29.88R
MADRAS AIRPORT  PTCLDY      46  37  71  CALM    29.93R
PRINEVILLE AP   MOCLEAR     39  34  82  MISG    29.92R
REDMOND AIRPORT CLOUDY      44  32  62  CALM    29.91R
#ASHWOOD SCHOOL N/A         46  38  73  S6      29.88S
#BEND 1SW       N/A         41  34  76  CALM    N/A
#BEND-AWBREY    N/A         48  38  68  CALM    29.86S
#BEND-KIM LN    N/A         45  37  73  W3      29.82S
#CULVER         N/A         48  39  71  CALM    29.80R
#CULVER 8W      N/A         48  40  74  CALM    29.92R
#MADRAS 4S      N/A         46   5  18  CALM    N/A
#POWELL BUTTE   N/A         50  38  63  E2      29.88S
#PRINEVILLE     N/A         42  37  82  CALM    29.96S
#PRINEVILLE 3N  N/A         40  37  89  CALM    29.88R
#WARM SPRINGS   N/A         52  42  69  CALM    29.73R

$$


ORZ509-261010-
EAST SLOPES OF OREGON CASCADES

CITY            SKY/WX      TMP DP  RH  WIND    PRES   REMARKS
SISTERS AWOS    N/A         41  36  82  CALM    29.90S
#CAMP SHERMAN   N/A         36  31  82  CALM    29.92R
#LA PINE 4SW    N/A         35  29  78  CALM    29.94S
#LA PINE 4NW    N/A         32  27  82  CALM    29.92R
#LAVA BUTTE DOT N/A         38  32  79  CALM    N/A
#SISTERS 3N     N/A         37  27  67  CALM    29.94S
#SUNRIVER       N/A         39  34  82  CALM    29.88S
#TUMALO 3W      N/A         49  36  61  N3      29.75R
#WANOGA BUTTE D N/A         38  32  79  NE3     N/A

$$

ORZ044-261010-
LOWER COLUMBIA BASIN...OREGON

CITY            SKY/WX      TMP DP  RH  WIND    PRES   REMARKS
HERMISTON       CLEAR       47  43  86  S5      29.87R
#BOARDMAN SCHOOLN/A         46  40  79  CALM    29.87R
#BOARDMAN 8SW   N/A         47  41  79  SW5     29.87R
#ECHO 8SW       N/A         45  36  70  SW1     29.89R
#IONE SCHOOL    N/A         44  26  49  CALM    29.89R
#UMATILLA       N/A         49  40  71  CALM    29.80R
$$

ORZ507-261010-
NORTHERN FOOTHILLS OF THE BLUES

CITY            SKY/WX      TMP DP  RH  WIND    PRES   REMARKS
PENDLETON AIRPT PTCLDY      50  44  80  CALM    29.87S
#ADAMS 3WNW     N/A         43  40  89  CALM    29.88R
#ATHENA         N/A         46  43  89  CALM    29.89R
#CAYUSE         N/A         49  43  80  E1      29.85S
#HELIX SCHOOL   N/A         44  40  86  CALM    29.86R
#HELIX 3N       N/A         47  41  79  SW1     29.86R
#HOLDMAN 5SE    N/A         46  41  83  CALM    29.88R
#HOLDMAN 6E     N/A         48  42  80  CALM    29.67R
#M-F FERNDALE   N/A         51  42  71  CALM    29.84R
#M-F GROVE ELEM N/A         50  41  71  CALM    29.85R
#M-FREEWATER 5SEN/A         51  43  74  NE2     29.87R
#PENDLETON DNTN N/A         48  37  65  CALM    29.86S
#PDT AQUATIC CTRN/A         48  39  71  CALM    29.91S
#PDT SUNRIDGE   N/A         45  41  86  CALM    29.90R
#PENDLETON 7NW  N/A         45  39  79  CALM    32.49S
#PILOT ROCK     N/A         46  39  76  CALM    29.91R
#TUTUILLA       N/A         44  40  86  CALM    29.88R
#UMAPINE 2E     N/A         48  44  86  CALM    29.84R
#WESTON SCHOOL  N/A         49  41  74  CALM    29.84S

$$

ORZ508-261010-
SOUTHERN FOOTHILLS OF THE BLUES

CITY            SKY/WX      TMP DP  RH  WIND    PRES   REMARKS
LEXINGTON       PTCLDY      45  39  79  E10     29.92R
#AJAX           N/A         53  33  46  CALM    30.05R
#CONDON 5W      N/A         49  36  61  CALM    29.90R
#FOSSIL SCHOOL  N/A         39  36  89  CALM    29.87R
#HEPPNER EOC    N/A         45  39  79  E7      29.82R
#HEPPNER 4NE    N/A         43  38  82  E1      29.88R
#MIKKALO        N/A         48  36  63  E5      30.00R
#OLEX 4N        N/A         46  38  73  S6      29.88R
#RUGGS 2SW      N/A         44  37  76  SW7     29.90R

$$

ORZ502-503-261010-
BLUE MOUNTAINS

CITY            SKY/WX      TMP DP  RH  WIND    PRES   REMARKS
MEACHAM         PTCLDY      34  31  89  CALM    29.90R
#GRANITE        N/A         39  34  82  E2      29.56R
#GREENHORN 9SW  N/A         37  36  96  CALM    29.91S
#HARDMAN 10S    N/A         41  37  86  CALM    30.00S
#LONG CREEK HS  N/A         40  39  96  CALM    N/A
#PIKES PEAK     N/A         50  39  66  CALM    27.99S
#SUMMERVILLE 5NWN/A         40  38  92  CALM    29.91R
#TOLLGATE       N/A         39  36  89  N1      29.78S
#TROY SCHOOL    N/A         49  44  83  CALM    29.72R
#WESTON 4E      N/A         46  40  79  CALM    29.84R
$$

ORZ505-261010-
JOHN DAY BASIN

CITY            SKY/WX      TMP DP  RH  WIND    PRES   REMARKS
JOHN DAY        PTCLDY      43  42  96  CALM    29.90R
#ANTELOPE 9ESE  N/A         47  39  74  CALM    N/A
#DAYVILLE SCHOOLN/A         45  38  76  CALM    29.87R
#MITCHELL       N/A         41  38  89  CALM    30.07R
#MITCHELL 8NW   N/A         48  37  65  CALM    29.88S
#MT. VERNON 5SE N/A         43  38  82  CALM    29.84S
#SPRAY SCHOOL   N/A         42  N/A N/A CALM    N/A
$$

ORZ506-261010-
OCHOCO AND JOHN DAY HIGHLANDS

CITY            SKY/WX      TMP DP  RH  WIND    PRES   REMARKS
#HORSE RIDGE DO N/A         38  29  70  CALM    N/A
#IZEE 6NW       N/A         37  35  92  CALM    N/A
#PAULINA ODOT   N/A         42  35  76  W2      N/A
#PINE MTN OBS   N/A         40  35  82  N3      N/A
$$

ORZ049-261010-
GRANDE RONDE VALLEY

CITY            SKY/WX      TMP DP  RH  WIND    PRES   REMARKS
LA GRANDE       PTCLDY      46  37  71  N9      29.87R
#COVE           N/A         44  42  93  N1      29.91R
#COVE SCHOOL    N/A         44  40  86  CALM    29.90R
#COVE 6NW       N/A         47  40  76  W1      29.86R
#ELGIN 3N       N/A         41  37  86  CALM    29.87R
#ELGIN 1E       N/A         43  38  82  CALM    N/A
#IMBLER SCHOOL  N/A         45  40  82  N3      29.85S
#ISLAND CITY 4N N/A         53  49  86  CALM    29.87S
#LA GRANDE-LEFFEN/A         45  40  82  CALM    29.89R
#UNION 1S       N/A         46  40  79  N2      29.85R
$$

ORZ050-261010-
WALLOWA COUNTY

CITY            SKY/WX      TMP DP  RH  WIND    PRES   REMARKS
JOSEPH AIRPORT  CLOUDY      45  41  86  CALM    29.91R
#ENTERPRISE HS  N/A         45  42  89  CALM    29.76R
#IMNAHA SCHOOL  N/A         53  47  80  CALM    29.88R
#IMNAHA 10S     N/A         47  44  89  CALM    29.88R
#JOSEPH         N/A         45  42  89  CALM    29.90R
#JOSEPH 3N      N/A         44  39  82  CALM    29.93R
#JOSEPH 3W      N/A         43  42  96  CALM    29.76R
#LOSTINE        N/A         43  41  93  CALM    29.70R
#LOSTINE 3SE    N/A         44  42  93  CALM    29.93R
#MT HOWARD 8000 N/A         31  30  96  VRB5    29.91R
#PROMISE 1S     N/A         42  40  93  CALM    29.97R
#WALLOWA LAKE   N/A         42  41  96  CALM    29.91R
#WALLOWA SCHOOL N/A         42  40  93  CALM    29.88R



$$



USA.gov is the U.S. government's official web portal to all federal, state and local government web resources and services.